Location: ?????????
(41.2286°N, 23.0068°E)
Time: 01:17:31
(UTC+00:00)

Cosmos 1300 Rocket - Pass Details

Date: 08 November 2025
Orbit: 594 x 620 km, 82.5° (Epoch: 07 December)

Event Time Altitude Azimuth Distance (km) Brightness Sun altitude
Rises 04:17:01 0° 344° (NNW) 2,875 6.7 -9.9°
Reaches altitude 10° 04:19:20 10° 337° (NNW) 1,961 5.8 -9.5°
Maximum altitude 04:23:23 40° 268° (W) 892 3.9 -8.7°
Drops below altitude 10° 04:27:23 10° 199° (SSW) 1,933 6.1 -8.0°
Sets 04:29:40 0° 192° (SSW) 2,827 7.0 -7.6°
